FENGYUN 1C DEB, 37400

Orbit data source: Space-Track

FENGYUN 1C DEB, 37400 is space debris in SSO originally from a launch on Mon, 10 May 1999 UTC launched from the Taiyaun Space Center, China (TSC). Fengyun 1C debris stems from the Chinese weather satellite Fengyun-1C, which was intentionally destroyed by a Chinese anti-satellite missile in 2007. This event dramatically increased the amount of space debris, with thousands of trackable fragments posing hazards to satellites and human spaceflight. The Fengyun 1C debris cloud has become a focal point in discussions about space sustainability and the need for international regulations to prevent the creation of new debris.

Loading next visibility...
Identifier
37400, 1999-025EFS
Orbit
SSO
Country
Flag of CNCN / PRC
Related business
Manufacturer
Unknown
Mission
Spacecraft
Bus & Motor
Unknown
Mass
Unknown
Launch date (UTC)
1999-05-10 (27 years ago)
Launch vehicle
Unknown
Launch site
Taiyaun Space Center, China (TSC)
Object type
Payload
Rocket body
Debris
Shape & HBR
Unknown shape, 0.1 m
Radar Cross Section
Small (<0.1 m²)

Expand to show TLE details & history
Last TLE update: 1 week ago

TLE from 1 week ago
0 FENGYUN 1C DEB
1 37400U 99025EFS 26153.75280079  .00000451  00000-0  35478-3 0  9994
2 37400  98.8379 340.9728 0401760  46.1228 317.2374 13.63866787825382
Epoch: 2026-06-02T18:04Z
TLE epoch observation values (Epoch: 2026-06-02T18:04:01.988Z)
Latitude
-0.00004°
Longitude
178.74327°
Altitude
811.957 km
Speed
7.553 km/s
True Right ascension
22h 43m 53s
True Declination
0° 00' 00"
Sunlit
Object was in daylight at epoch
Visualization orbit readout
Latitude
Unknown
Longitude
Unknown
Altitude
Unknown
Speed
Unknown
Apparent Right ascension
Unknown
Apparent Declination
Unknown
Sunlit
N/A
Visualization observer readout
Local Sidereal Time
20:58:18
Azimuth
Unknown
Elevation
Unknown
Doppler factor
Unknown
Orbital elements
Apogee altitude
1,316.09 km
Perigee altitude
721.722 km
Semi-major axis
7,397.043 km
Eccentricity
0.04018
Inclination
98.8379°
RAAN
340.9728°
Arg. of periapsis
46.1228°
True anomaly
313.99384°
Mean anomaly
317.2374°
Eccentric anomaly
315.62763°
Mean motion
3.41158 °/min
Orbital period
105.52 mins
BSTAR
0.00035478
Loading maneuver chart data...
Computing Atmospheric mass density...

Documentation

Showing up to 5 results
|